[[{"header":{"parameterUnit":"m.s-1","parameterCategory":2,"la1":30.2991,"la2":30.254,"lo1":-89.0895,"lo2":-89.0444,"dy":0.0017,"dx":0.0017,"nx":28,"ny":28,"refTime":"2024-03-26T03:00:00:Z","depth":"0","parameterNumber":2,"parameterNumberName":"U-component_of_CURRENTS"},"data":[0,0,0,0,0,0,0,0,0,0,0,0,0,0,0,0,0,0,0,0,0,0,0,0,0,0,0,0,0,0,0,0,0,0,0,0,0,0,0,0,0,0,0,0,0,0,0,0,0,0,0,0,0,0,0,0,0,0,0.3374,0.3375,0,0.3405,0.3405,0.3405,0.3326,0.3324,0.3322,0.332,0.3301,0.3303,0.3304,0,0,0,0,0,0,0,0,0,0,0,0,0,0.3186,0.3189,0.3374,0.3375,0.3376,0.3405,0.3405,0.3404,0.3326,0.3324,0.3322,0.3319,0.3301,0.3303,0.3304,0,0,0,0,0,0,0,0,0,0,0,0,0,0.3241,0.3191,0.3374,0.3345,0.3343,0.3405,0.3405,0.3404,0.3327,0.3324,0.3321,0.3318,0.3301,0.3302,0.3304,0.3373,0,0,0.331,0.3311,0,0,0,0,0,0,0,0,0.3238,0.3247,0.3348,0.3347,0.3345,0.3364,0.3332,0.3394,0.3327,0.3326,0.332,0.3317,0.3324,0.3324,0.3328,0.3372,0.3371,0.331,0.3311,0.3312,0.3313,0,0,0,0,0,0,0,0.3235,0.3245,0.338,0.335,0.3348,0.331,0.3314,0.3342,0.3335,0.3326,0.3322,0.3337,0.3322,0.3326,0.3327,0.3371,0.331,0.3312,0.3313,0.3314,0.3522,0.3527,0,0,0,0,0,0,0.3251,0.3243,0.3379,0.3381,0.3291,0.3316,0.3321,0.3356,0.3336,0.3332,0.3339,0.3333,0.3324,0.3324,0.3326,0.3461,0.3312,0.3314,0.3315,0.3518,0.3523,0.3528,0,0,0,0,0,0,0.3247,0.3264,0.3378,0.3316,0.3328,0.3324,0.3363,0.3358,0.3374,0.3347,0.334,0.3361,0.3322,0.3323,0.3382,0.3457,0.3315,0.3316,0.3513,0.352,0.3526,0.3697,0,0,0,0,0,0,0.3242,0.3263,0.3295,0.3318,0.3333,0.3444,0.3366,0.3361,0.339,0.3382,0.3365,0.3359,0.332,0.338,0.3384,0.3457,0.3318,0.3507,0.3516,0.3524,0.3686,0.3709,0.3728,0,0,0,0,0,0.3236,0.3303,0.3297,0.3313,0.3378,0.3448,0.3453,0.3433,0.3394,0.343,0.3417,0.336,0.3434,0.3386,0.3389,0.3465,0.3503,0.3513,0.3523,0.3676,0.3704,0.3728,0,0,0,0,0,0,0.3269,0.3303,0.3296,0.3378,0.3421,0.3438,0.3477,0.3459,0.3478,0.3469,0.3419,0.3417,0.3501,0.3469,0.3416,0.3552,0.346,0.3471,0.3575,0.3601,0.3622,0.3607,0.332,0,0,0,0,0,0.3288,0.3324,0.3371,0.3438,0.347,0.3477,0.3501,0.3496,0.3515,0.3518,0.3508,0.351,0.3548,0.356,0.3584,0.3661,0.3644,0.3713,0.3735,0.3753,0.3746,0.3808,0.3833,0.3561,0.3561,0.356,0,0,0.3322,0.3345,0.3368,0.3443,0.3472,0.3543,0.3484,0.3551,0.3598,0.352,0.3587,0.3594,0.359,0.3675,0.3708,0.3653,0.3832,0.3765,0.378,0.3763,0.3821,0.3847,0.387,0.3567,0.3566,0.3565,0,0,0.3404,0.3436,0.3491,0.3537,0.3597,0.3611,0.364,0.3682,0.369,0.3762,0.3729,0.3781,0.3819,0.3839,0.385,0.4009,0.3951,0.4023,0.4107,0.4169,0.4191,0.421,0.4256,0.4278,0.4022,0.4022,0.4023,0,0.3447,0.3512,0.3526,0.3601,0.3642,0.3651,0.3732,0.3768,0.3816,0.3836,0.3804,0.3894,0.3897,0.3998,0.4051,0.4057,0.407,0.4006,0.4195,0.4213,0.4229,0.4272,0.4293,0.4032,0.4031,0.403,0.4029,0,0.3559,0.362,0.3673,0.3749,0.3807,0.3884,0.3937,0.3992,0.3994,0.4004,0.4099,0.4115,0.415,0.4187,0.4163,0.4298,0.4266,0.4223,0.4122,0.4267,0.4303,0.4323,0.4045,0.4042,0.4039,0.4037,0,0,0.3631,0.3724,0.3739,0.3769,0.3881,0.3926,0.4048,0.4128,0.4156,0.4227,0.4272,0.4379,0.436,0.4373,0.4373,0.4428,0.4578,0.4379,0.4378,0.4411,0.4714,0.4654,0.4668,0.4568,0.4571,0.4574,0.4704,0,0.3711,0.3822,0.3863,0.3974,0.404,0.4091,0.4174,0.4246,0.4282,0.4331,0.4385,0.4426,0.4441,0.4446,0.4529,0.4548,0.4631,0.4546,0.4579,0.458,0.4497,0.4689,0.446,0.4553,0.4722,0.4725,0.4727,0,0.3792,0.385,0.3953,0.4028,0.4062,0.4126,0.4213,0.4288,0.4383,0.4404,0.449,0.4502,0.4627,0.4583,0.4749,0.4693,0.4733,0.4747,0.4752,0.4637,0.4555,0.4431,0.458,0.4487,0.4756,0.4753,0.4751,0,0.3763,0.39,0.3951,0.3991,0.4101,0.4145,0.4204,0.4302,0.4347,0.444,0.4485,0.4601,0.4666,0.4749,0.4839,0.4791,0.499,0.4914,0.4911,0.4905,0.4685,0.4654,0.4725,0.5044,0.5043,0.5043,0.5043,0,0.3793,0.3836,0.3927,0.3953,0.4003,0.4105,0.4153,0.4224,0.4328,0.4381,0.4508,0.4579,0.4713,0.4843,0.4885,0.4989,0.5051,0.4965,0.4954,0.4743,0.4717,0.4598,0.4549,0.5048,0.5047,0.5046,0.5045,0,0.373,0.3795,0.3847,0.3951,0.3978,0.4004,0.4108,0.4143,0.4273,0.4359,0.4399,0.46,0.4751,0.4894,0.5024,0.5055,0.4988,0.5144,0.4889,0.4846,0.4686,0.4654,0.453,0.4402,0.5127,0.5127,0.5126,0,0.3698,0.3722,0.3799,0.3811,0.3847,0.3908,0.3945,0.4078,0.4132,0.4357,0.4397,0.4603,0.4717,0.4943,0.4991,0.5088,0.4967,0.4946,0.4809,0.4691,0.4648,0.4474,0.4362,0.4598,0.4593,0.459,0.4586,0,0.3639,0.3651,0.3679,0.37,0.3728,0.3771,0.3852,0.3886,0.4055,0.4156,0.4303,0.4417,0.4666,0.467,0.4849,0.4867,0.4686,0.4868,0.4809,0.4312,0.406,0.3924,0.4503,0.4552,0.4556,0.4558,0.456,0.4561,0.3565,0.3552,0.3569,0.3566,0.3592,0.3613,0.36,0.3711,0.3771,0.389,0.4092,0.4194,0.4364,0.4551,0.456,0.4459,0.4462,0.4333,0.433,0.4186,0.3974,0.449,0.4485,0.4488,0.449,0.4493,0.4495,0,0.3465,0.3448,0.3446,0.342,0.3377,0.3455,0.3505,0.3478,0.3483,0.3658,0.3753,0.3868,0.3914,0.4032,0.407,0.397,0.3766,0.3878,0.3573,0.3511,0.403,0.3919,0.3712,0.3712,0.3712,0.3712,0.3712,0.3712,0.3406,0.3341,0.3323,0.32,0.3186,0.3104,0.3099,0.3096,0.3173,0.3207,0.3261,0.3398,0.3668,0.3789,0.3707,0.3612,0.3364,0.3194,0.3252,0.3625,0.3665,0.3704,0.3591,0.3318,0.3318,0.2532,0.2527,0.2522]},{"header":{"parameterUnit":"m.s-1","parameterCategory":2,"la1":30.2991,"la2":30.254,"lo1":-89.0895,"lo2":-89.0444,"dy":0.0017,"dx":0.0017,"nx":28,"ny":28,"refTime":"2024-03-26T03:00:00:Z","depth":"0","parameterNumber":3,"parameterNumberName":"V-component_of_CURRENTS"},"data":[0,0,0,0,0,0,0,0,0,0,0,0,0,0,0,0,0,0,0,0,0,0,0,0,0,0,0,0,0,0,0,0,0,0,0,0,0,0,0,0,0,0,0,0,0,0,0,0,0,0,0,0,0,0,0,0,0,0,-0.0124,-0.0125,0,-0.0221,-0.0222,-0.0223,-0.0315,-0.0316,-0.0316,-0.0317,-0.0436,-0.0438,-0.0441,0,0,0,0,0,0,0,0,0,0,0,0,0,-0.0152,-0.015,-0.0124,-0.0125,-0.0126,-0.022,-0.0222,-0.0224,-0.0315,-0.0316,-0.0317,-0.0318,-0.0435,-0.0438,-0.0441,0,0,0,0,0,0,0,0,0,0,0,0,0,-0.0186,-0.015,-0.0124,-0.018,-0.0186,-0.022,-0.0222,-0.0224,-0.0314,-0.0316,-0.0317,-0.0318,-0.0434,-0.0438,-0.0441,-0.0439,0,0,-0.0452,-0.0454,0,0,0,0,0,0,0,0,-0.0184,-0.0185,-0.0171,-0.0176,-0.0183,-0.0254,-0.0275,-0.0296,-0.0314,-0.0269,-0.0317,-0.0319,-0.0374,-0.0383,-0.0403,-0.0444,-0.0449,-0.0453,-0.0455,-0.0456,-0.0457,0,0,0,0,0,0,0,-0.0181,-0.0182,-0.0166,-0.0172,-0.0179,-0.0246,-0.0251,-0.0281,-0.0317,-0.0273,-0.0279,-0.0284,-0.0378,-0.0399,-0.0406,-0.0451,-0.0453,-0.0456,-0.0458,-0.0459,-0.0497,-0.0495,0,0,0,0,0,0,-0.0153,-0.0179,-0.0163,-0.0169,-0.0182,-0.0243,-0.025,-0.0233,-0.0316,-0.0329,-0.0283,-0.0288,-0.0392,-0.0402,-0.0411,-0.0401,-0.0456,-0.046,-0.0462,-0.0498,-0.0496,-0.0495,0,0,0,0,0,0,-0.0153,-0.015,-0.0159,-0.0175,-0.0181,-0.024,-0.0221,-0.0234,-0.025,-0.0322,-0.0337,-0.0285,-0.0394,-0.0406,-0.0431,-0.0406,-0.0461,-0.0465,-0.0499,-0.0497,-0.0496,-0.0388,0,0,0,0,0,0,-0.0153,-0.0149,-0.012,-0.0172,-0.0178,-0.016,-0.022,-0.0235,-0.025,-0.0257,-0.0329,-0.0342,-0.0396,-0.0425,-0.0435,-0.0412,-0.0467,-0.0501,-0.0498,-0.0496,-0.0393,-0.0383,-0.0374,0,0,0,0,0,-0.0153,-0.0105,-0.0117,-0.0115,-0.0137,-0.0158,-0.0167,-0.0219,-0.0248,-0.0241,-0.0297,-0.0339,-0.0418,-0.0427,-0.0438,-0.0417,-0.0502,-0.0499,-0.0496,-0.0397,-0.0385,-0.0374,0,0,0,0,0,0,-0.0098,-0.0111,-0.0125,-0.0081,-0.0109,-0.0172,-0.0166,-0.0203,-0.0243,-0.0249,-0.0327,-0.0342,-0.036,-0.0397,-0.0405,-0.042,-0.0465,-0.0465,-0.0386,-0.0375,-0.0365,-0.0339,-0.047,0,0,0,0,0,-0.0069,-0.0041,-0.0072,-0.004,-0.0044,-0.0102,-0.0115,-0.0148,-0.0193,-0.0212,-0.027,-0.0321,-0.0357,-0.0372,-0.0416,-0.0415,-0.0454,-0.0408,-0.0398,-0.039,-0.0375,-0.0423,-0.0416,-0.0486,-0.0486,-0.0486,0,0,-0.0044,-0.0043,-0.0031,-0.0027,-0.0054,-0.005,-0.0113,-0.0119,-0.0118,-0.0216,-0.0234,-0.0294,-0.0352,-0.0365,-0.0374,-0.0391,-0.0387,-0.0387,-0.0379,-0.0369,-0.042,-0.0413,-0.0407,-0.0485,-0.0485,-0.0485,0,0,0.0017,0.0028,0.0066,0.0055,0.0038,0.0002,0.0009,-0.0045,-0.0067,-0.0088,-0.0161,-0.0202,-0.0257,-0.0299,-0.0324,-0.0282,-0.0342,-0.0292,-0.0214,-0.026,-0.0254,-0.025,-0.0274,-0.0273,-0.0278,-0.0278,-0.0277,0,0.0049,0.0095,0.0071,0.0101,0.0098,0.0034,0.006,0.0036,-0.0025,-0.0032,-0.0075,-0.017,-0.0225,-0.0239,-0.0229,-0.026,-0.0289,-0.0252,-0.0247,-0.0244,-0.0242,-0.0267,-0.0267,-0.0272,-0.0273,-0.0273,-0.0274,0,0.013,0.0161,0.0182,0.0197,0.0195,0.0206,0.0172,0.0167,0.0124,0.0081,0.0049,-0.004,-0.0093,-0.0116,-0.016,-0.0162,-0.0188,-0.0237,-0.0274,-0.0228,-0.0258,-0.026,-0.0264,-0.0266,-0.0268,-0.0269,0,0,0.0193,0.0233,0.0236,0.0259,0.0246,0.0252,0.0273,0.0265,0.028,0.0207,0.0209,0.0129,0.0066,0.0035,-0.0035,-0.0072,-0.0083,-0.0132,-0.0137,-0.015,-0.0165,-0.017,-0.0174,-0.0133,-0.0133,-0.0133,-0.0186,0,0.0253,0.0333,0.0331,0.0383,0.0412,0.0379,0.0405,0.0392,0.0355,0.034,0.0255,0.0216,0.0131,0.0103,0.0055,-0.0051,-0.0086,-0.0062,-0.0212,-0.0215,-0.0223,-0.0175,-0.0155,-0.02,-0.0189,-0.0189,-0.019,0,0.0324,0.0364,0.0438,0.0482,0.0494,0.0515,0.054,0.0553,0.0526,0.0497,0.0442,0.0362,0.0304,0.0212,0.0073,0.0093,-0.0016,-0.0106,-0.0112,-0.0155,-0.0225,-0.0249,-0.0205,-0.0408,-0.0194,-0.0193,-0.0193,0,0.037,0.0436,0.05,0.0511,0.0552,0.0585,0.06,0.0596,0.0625,0.0586,0.0595,0.0489,0.045,0.0299,0.0129,0.0099,-0.0028,-0.0101,-0.0208,-0.0209,-0.024,-0.0243,-0.0405,-0.0201,-0.0201,-0.0201,-0.0201,0,0.0428,0.0475,0.0529,0.0558,0.0637,0.0643,0.0711,0.0714,0.073,0.0781,0.0674,0.0691,0.0468,0.037,0.0186,0.0007,0.0015,-0.0176,-0.022,-0.0199,-0.0198,-0.0416,-0.0518,-0.0203,-0.0202,-0.0202,-0.0202,0,0.0458,0.0499,0.0567,0.063,0.0659,0.0707,0.0788,0.0842,0.0849,0.0914,0.0913,0.0848,0.0732,0.0515,0.0282,0.0102,-0.0196,-0.0163,-0.0107,-0.0144,-0.0442,-0.0536,-0.0726,-0.0807,-0.0289,-0.029,-0.029,0,0.0483,0.0522,0.061,0.0664,0.0692,0.0771,0.0841,0.0884,0.0946,0.1022,0.1067,0.0997,0.0981,0.0657,0.0318,0.0016,-0.0189,-0.0187,-0.0253,-0.0435,-0.0575,-0.0655,-0.0715,-0.0248,-0.0248,-0.0248,-0.0248,0,0.0502,0.053,0.0586,0.0706,0.079,0.089,0.099,0.107,0.1147,0.124,0.1345,0.1352,0.1066,0.0775,0.0354,0.013,-0.0312,-0.0196,-0.0412,-0.0565,-0.0636,-0.0741,-0.0227,-0.0248,-0.0248,-0.0248,-0.0248,-0.0248,0.0502,0.0548,0.0634,0.075,0.0862,0.1007,0.1109,0.1245,0.1403,0.158,0.1557,0.1635,0.1189,0.0633,0.0293,-0.0313,-0.0324,-0.0517,-0.0616,-0.0681,-0.0761,-0.0226,-0.0285,-0.0285,-0.0285,-0.0285,-0.0286,0,0.0508,0.0578,0.0681,0.0829,0.0964,0.1021,0.1215,0.1349,0.1574,0.1756,0.1872,0.1723,0.1173,0.0605,-0.0222,-0.0665,-0.0821,-0.0905,-0.1033,-0.1076,-0.0626,-0.0628,-0.073,-0.073,-0.073,-0.073,-0.0729,-0.0729,0.0516,0.061,0.0676,0.089,0.1007,0.1202,0.1327,0.1554,0.1736,0.1999,0.2085,0.2091,0.1651,0.0161,-0.0865,-0.1097,-0.1384,-0.145,-0.1606,-0.1329,-0.1302,-0.1275,-0.1304,-0.1546,-0.1547,-0.2007,-0.2012,-0.2015]}],[{"header":{"parameterUnit":"m.s-1","parameterCategory":2,"la1":30.2991,"la2":30.254,"lo1":-89.0895,"lo2":-89.0444,"dy":0.0017,"dx":0.0017,"nx":28,"ny":28,"refTime":"2024-03-26T03:00:00:Z","depth":"2","parameterNumber":2,"parameterNumberName":"U-component_of_CURRENTS"},"data":[0,0,0,0,0,0,0,0,0,0,0,0,0,0,0,0,0,0,0,0,0,0,0,0,0,0,0,0,0,0,0,0,0,0,0,0,0,0,0,0,0,0,0,0,0,0,0,0,0,0,0,0,0,0,0,0,0,0,0.303,0.303,0,0.3047,0.3047,0.3047,0.3083,0.3084,0.3085,0.3086,0.3129,0.3129,0.3129,0,0,0,0,0,0,0,0,0,0,0,0,0,0.2936,0.2938,0.303,0.303,0.3031,0.3047,0.3047,0.3047,0.3083,0.3084,0.3086,0.3087,0.3129,0.3129,0.3129,0,0,0,0,0,0,0,0,0,0,0,0,0,0.2964,0.2939,0.303,0.3054,0.3057,0.3047,0.3047,0.3047,0.3083,0.3084,0.3086,0.3087,0.3129,0.3129,0.3129,0.3096,0,0,0.3129,0.3129,0,0,0,0,0,0,0,0,0.2962,0.2967,0.305,0.3052,0.3055,0.3069,0.303,0.3066,0.3082,0.3068,0.3086,0.3088,0.3112,0.3114,0.3107,0.3098,0.31,0.3129,0.3129,0.313,0.313,0,0,0,0,0,0,0,0.2961,0.2966,0.3032,0.305,0.3054,0.3033,0.3039,0.3036,0.3078,0.3069,0.3073,0.3082,0.3114,0.3107,0.3109,0.3101,0.3129,0.3129,0.313,0.313,0.3252,0.3255,0,0,0,0,0,0,0.297,0.2964,0.3032,0.3033,0.3017,0.3034,0.3041,0.3059,0.3077,0.3083,0.308,0.3083,0.3106,0.3108,0.311,0.325,0.313,0.313,0.313,0.3248,0.3252,0.3256,0,0,0,0,0,0,0.2968,0.2976,0.3031,0.3002,0.3008,0.3035,0.3055,0.3059,0.3085,0.3086,0.3091,0.3107,0.3107,0.311,0.3176,0.3245,0.313,0.313,0.3245,0.325,0.3254,0.3415,0,0,0,0,0,0,0.2966,0.2976,0.3001,0.3003,0.301,0.3071,0.3054,0.3058,0.3088,0.3093,0.311,0.3114,0.3109,0.3176,0.3176,0.3243,0.313,0.3241,0.3247,0.3252,0.3406,0.3425,0.3441,0,0,0,0,0,0.2962,0.3003,0.3002,0.3011,0.3041,0.3073,0.3076,0.3096,0.3088,0.312,0.3147,0.3115,0.3213,0.3179,0.3178,0.3247,0.3238,0.3245,0.3252,0.3398,0.3421,0.344,0,0,0,0,0,0,0.3001,0.301,0.301,0.3058,0.3081,0.3083,0.3116,0.3109,0.3148,0.316,0.3151,0.3158,0.3249,0.3218,0.318,0.33,0.3221,0.3228,0.3332,0.3354,0.3371,0.3356,0.313,0,0,0,0,0,0.3012,0.303,0.3048,0.3088,0.3107,0.3108,0.3123,0.3133,0.3159,0.3177,0.319,0.3214,0.3267,0.3289,0.3318,0.3367,0.3352,0.3412,0.3429,0.3444,0.3433,0.3484,0.3506,0.3279,0.3279,0.3279,0,0,0.3041,0.3045,0.3062,0.3094,0.3111,0.3182,0.3123,0.3166,0.3218,0.3174,0.326,0.3279,0.3297,0.3383,0.3417,0.337,0.3511,0.3453,0.3466,0.3446,0.3494,0.3516,0.3535,0.3284,0.3283,0.3282,0,0,0.31,0.3114,0.3151,0.319,0.3222,0.3238,0.3259,0.3279,0.3286,0.3358,0.3359,0.3417,0.3471,0.3504,0.3528,0.3648,0.3611,0.3663,0.3732,0.3784,0.3802,0.3818,0.3868,0.3887,0.3662,0.3663,0.3663,0,0.313,0.3181,0.3172,0.3239,0.3291,0.328,0.3364,0.3377,0.3414,0.3418,0.3419,0.3527,0.3535,0.3643,0.3691,0.3689,0.3707,0.3654,0.3807,0.3822,0.3836,0.3882,0.3901,0.3671,0.367,0.3669,0.3669,0,0.3232,0.3284,0.3321,0.3403,0.3468,0.3527,0.3568,0.3615,0.3624,0.3609,0.3694,0.3718,0.3773,0.3801,0.3784,0.3891,0.3873,0.3833,0.3752,0.3868,0.391,0.3927,0.3684,0.3681,0.3678,0.3676,0,0,0.3295,0.3359,0.3389,0.3412,0.3551,0.3586,0.3727,0.3784,0.3808,0.3861,0.3897,0.4,0.3961,0.3983,0.3976,0.401,0.4133,0.3962,0.3961,0.4009,0.4261,0.4098,0.41,0.4127,0.413,0.4132,0.4266,0,0.3375,0.3462,0.3519,0.3648,0.3707,0.3781,0.3891,0.395,0.3966,0.399,0.4008,0.4038,0.4044,0.4059,0.4116,0.411,0.4178,0.41,0.4141,0.4141,0.398,0.4114,0.3817,0.3897,0.4282,0.4284,0.4286,0,0.3501,0.3521,0.3622,0.3699,0.3737,0.3826,0.3958,0.404,0.4099,0.4106,0.4171,0.4141,0.4225,0.418,0.431,0.4264,0.4284,0.4283,0.4287,0.4077,0.4008,0.3834,0.3911,0.4313,0.4311,0.4309,0.4307,0,0.3516,0.3615,0.3654,0.3701,0.3807,0.3866,0.3951,0.4061,0.409,0.415,0.4178,0.4257,0.4288,0.4359,0.4376,0.4353,0.4475,0.4441,0.4337,0.4326,0.4045,0.4002,0.4541,0.454,0.454,0.454,0.4539,0,0.3585,0.3622,0.3629,0.3653,0.3696,0.3831,0.388,0.3983,0.4091,0.4096,0.4204,0.4235,0.4329,0.4389,0.4419,0.4432,0.4539,0.4367,0.4353,0.4095,0.4058,0.4372,0.4351,0.4545,0.4544,0.4543,0.4542,0,0.3594,0.3608,0.3621,0.3676,0.3686,0.3724,0.382,0.3844,0.401,0.4048,0.4076,0.4231,0.4303,0.439,0.4466,0.4462,0.4487,0.4466,0.4152,0.4095,0.4302,0.4289,0.4379,0.4375,0.4371,0.4368,0.4365,0,0.3579,0.3582,0.3584,0.3557,0.3557,0.3599,0.3625,0.3779,0.38,0.4014,0.4012,0.4138,0.4144,0.4259,0.4242,0.4286,0.4398,0.4046,0.3928,0.4311,0.4289,0.4281,0.4272,0.3657,0.3649,0.3642,0.3636,0,0.3515,0.3509,0.35,0.3436,0.3412,0.3412,0.3455,0.3467,0.3641,0.3703,0.3795,0.3839,0.3944,0.3822,0.3889,0.388,0.4008,0.3903,0.4414,0.3714,0.3632,0.3609,0.3624,0.3576,0.3582,0.3586,0.359,0.3592,0.3431,0.3391,0.3336,0.3267,0.3253,0.3218,0.3166,0.3211,0.3232,0.3293,0.3457,0.3454,0.3532,0.3438,0.3372,0.3364,0.3626,0.3529,0.3551,0.3579,0.3442,0.3353,0.3222,0.3226,0.3229,0.3232,0.3235,0,0.322,0.3188,0.3153,0.3055,0.2987,0.3042,0.3022,0.2943,0.287,0.2972,0.2995,0.28,0.2766,0.2873,0.2761,0.2791,0.2774,0.2702,0.2669,0.2733,0.2789,0.2609,0.217,0.2167,0.2163,0.2159,0,0,0.3096,0.2959,0.294,0.2761,0.2745,0.261,0.2576,0.2494,0.2505,0.2396,0.2382,0.2591,0.277,0.2399,0.239,0.2257,0.2464,0.2177,0.3042,0.3065,0.3115,0.3291,0.309,0,0,0,0,0]},{"header":{"parameterUnit":"m.s-1","parameterCategory":2,"la1":30.2991,"la2":30.254,"lo1":-89.0895,"lo2":-89.0444,"dy":0.0017,"dx":0.0017,"nx":28,"ny":28,"refTime":"2024-03-26T03:00:00:Z","depth":"2","parameterNumber":3,"parameterNumberName":"V-component_of_CURRENTS"},"data":[0,0,0,0,0,0,0,0,0,0,0,0,0,0,0,0,0,0,0,0,0,0,0,0,0,0,0,0,0,0,0,0,0,0,0,0,0,0,0,0,0,0,0,0,0,0,0,0,0,0,0,0,0,0,0,0,0,0,0.0125,0.0124,0,0.005,0.0049,0.0049,-0.0049,-0.0051,-0.0052,-0.0053,-0.0188,-0.019,-0.0192,0,0,0,0,0,0,0,0,0,0,0,0,0,0.0093,0.0094,0.0125,0.0124,0.0124,0.0051,0.0049,0.0048,-0.0049,-0.0051,-0.0052,-0.0054,-0.0187,-0.019,-0.0193,0,0,0,0,0,0,0,0,0,0,0,0,0,0.0071,0.0095,0.0125,0.0067,0.0061,0.0051,0.0049,0.0048,-0.0048,-0.0051,-0.0053,-0.0055,-0.0186,-0.019,-0.0193,-0.0169,0,0,-0.0203,-0.0204,0,0,0,0,0,0,0,0,0.0072,0.0072,0.0077,0.0071,0.0065,0.0009,-0.0011,-0.0027,-0.0048,-0.0008,-0.0053,-0.0056,-0.0125,-0.0134,-0.0144,-0.0175,-0.0181,-0.0203,-0.0205,-0.0207,-0.0208,0,0,0,0,0,0,0,0.0074,0.0074,0.0094,0.0076,0.0069,0.0014,0.0009,-0.0015,-0.0055,-0.0012,-0.0019,-0.0024,-0.013,-0.014,-0.0148,-0.0183,-0.0203,-0.0206,-0.0208,-0.021,-0.0246,-0.0245,0,0,0,0,0,0,0.0093,0.0076,0.0097,0.0092,0.0064,0.0017,0.0011,0.0028,-0.0054,-0.0068,-0.0022,-0.0028,-0.0134,-0.0144,-0.0153,-0.0163,-0.0207,-0.021,-0.0212,-0.0247,-0.0245,-0.0244,0,0,0,0,0,0,0.0093,0.0097,0.01,0.0081,0.0078,0.002,0.004,0.0028,0.0008,-0.0061,-0.0077,-0.0031,-0.0136,-0.0148,-0.0182,-0.0168,-0.0211,-0.0214,-0.0248,-0.0246,-0.0245,-0.0163,0,0,0,0,0,0,0.0093,0.0098,0.0118,0.0084,0.008,0.0092,0.0041,0.0028,0.0009,-0.0001,-0.0073,-0.0088,-0.0138,-0.0177,-0.0186,-0.0174,-0.0217,-0.0249,-0.0247,-0.0245,-0.0167,-0.0158,-0.0151,0,0,0,0,0,0.0093,0.0126,0.0121,0.0122,0.0111,0.0093,0.0086,0.0035,0.0011,0.0008,-0.0044,-0.0086,-0.0171,-0.0179,-0.0189,-0.0178,-0.025,-0.0248,-0.0245,-0.017,-0.016,-0.0152,0,0,0,0,0,0,0.0119,0.0118,0.0111,0.0143,0.0121,0.0077,0.0078,0.0046,0.0006,-0.0,-0.0074,-0.0091,-0.012,-0.0151,-0.0157,-0.0181,-0.0216,-0.0216,-0.0155,-0.0147,-0.0139,-0.0111,-0.022,0,0,0,0,0,0.0141,0.0168,0.0147,0.0173,0.0171,0.013,0.0118,0.0088,0.0049,0.0028,-0.0025,-0.0073,-0.0112,-0.0132,-0.0173,-0.0177,-0.0213,-0.0175,-0.0168,-0.0161,-0.0144,-0.0195,-0.0191,-0.0237,-0.0237,-0.0237,0,0,0.0156,0.0163,0.0175,0.018,0.0166,0.017,0.0117,0.0112,0.011,0.0024,0.0005,-0.0051,-0.0109,-0.0128,-0.0141,-0.0155,-0.0165,-0.0158,-0.0152,-0.0139,-0.0192,-0.0188,-0.0184,-0.0235,-0.0235,-0.0236,0,0,0.0204,0.0214,0.0251,0.0242,0.0233,0.0207,0.0209,0.0171,0.0151,0.0129,0.0065,0.0021,-0.0036,-0.0076,-0.0102,-0.0069,-0.0129,-0.0081,-0.0015,-0.0065,-0.0062,-0.0059,-0.0092,-0.0094,-0.0071,-0.007,-0.007,0,0.0228,0.0272,0.0254,0.0281,0.0282,0.0229,0.0255,0.0233,0.0183,0.0178,0.0132,0.0045,-0.001,-0.003,-0.0024,-0.0053,-0.0085,-0.0047,-0.0055,-0.0054,-0.0053,-0.0088,-0.009,-0.0066,-0.0067,-0.0067,-0.0067,0,0.0298,0.0326,0.0346,0.0368,0.0363,0.0377,0.0347,0.0342,0.0304,0.0267,0.0231,0.0147,0.0097,0.0071,0.003,0.0021,-0.0006,-0.0047,-0.0078,-0.0043,-0.0082,-0.0086,-0.006,-0.0062,-0.0063,-0.0064,0,0,0.0359,0.0395,0.0398,0.0428,0.0413,0.0423,0.0434,0.0429,0.0443,0.037,0.037,0.0286,0.0231,0.02,0.0137,0.0095,0.0067,0.004,0.0035,0.0009,-0.003,-0.0059,-0.0067,0.002,0.002,0.0019,-0.0058,0,0.0418,0.0499,0.0489,0.0543,0.0577,0.0544,0.0558,0.0544,0.0507,0.049,0.0404,0.0366,0.0284,0.0259,0.0205,0.0103,0.0059,0.0093,-0.0061,-0.0065,-0.0095,-0.0072,-0.0034,-0.0101,-0.0062,-0.0063,-0.0063,0,0.0481,0.0528,0.0606,0.065,0.0663,0.0677,0.0703,0.0707,0.0667,0.0646,0.0587,0.0502,0.0438,0.0352,0.0203,0.0228,0.0116,0.0026,0.002,-0.0036,-0.0101,-0.0132,-0.0111,-0.0071,-0.0071,-0.007,-0.0069,0,0.0535,0.0603,0.0676,0.0689,0.0726,0.0757,0.0764,0.0747,0.0778,0.0733,0.0743,0.0626,0.0583,0.0425,0.0241,0.0221,0.007,0.0011,-0.0121,-0.0124,-0.0135,-0.0139,-0.0098,-0.0098,-0.0098,-0.0097,-0.0097,0,0.0595,0.0646,0.0711,0.0746,0.0833,0.0822,0.0891,0.089,0.0894,0.0941,0.0821,0.0832,0.0598,0.0476,0.0289,0.0086,0.0102,-0.0098,-0.0145,-0.0104,-0.0104,-0.0116,-0.0117,-0.01,-0.01,-0.0099,-0.0099,0,0.0622,0.0671,0.0758,0.0829,0.0859,0.0911,0.0987,0.1036,0.1032,0.109,0.1086,0.0992,0.0831,0.0588,0.0337,0.0166,-0.0043,-0.0124,-0.0051,-0.0089,-0.0216,-0.0211,-0.0277,-0.0279,-0.0281,-0.0282,-0.0283,0,0.0652,0.0703,0.0815,0.0882,0.0915,0.0998,0.1063,0.1099,0.116,0.1198,0.1239,0.1108,0.1029,0.0657,0.0315,-0.0018,-0.0057,-0.0183,-0.0227,-0.0194,-0.0234,-0.0227,-0.0221,-0.0207,-0.0207,-0.0207,-0.0207,0,0.0698,0.0733,0.0797,0.0942,0.1037,0.1144,0.1235,0.132,0.1373,0.143,0.147,0.1404,0.1051,0.0713,0.0264,0.0049,-0.0131,-0.0199,-0.0183,-0.0167,-0.0134,-0.0171,-0.0166,-0.0209,-0.0209,-0.0209,-0.0209,-0.0209,0.0717,0.078,0.0881,0.101,0.1126,0.1266,0.1366,0.1475,0.1598,0.1676,0.1619,0.1533,0.1167,0.0573,0.0201,-0.0176,-0.0172,-0.0291,-0.0287,-0.0284,-0.0262,-0.0233,-0.0322,-0.0323,-0.0323,-0.0323,-0.0324,0,0.0774,0.0842,0.0954,0.1116,0.1237,0.1294,0.1473,0.1578,0.1733,0.177,0.1772,0.1428,0.105,0.0639,0.0066,-0.0277,-0.0293,-0.0364,-0.0308,-0.0303,-0.0299,-0.0276,-0.0342,-0.0343,-0.0344,-0.0345,0,0,0.0813,0.0917,0.0978,0.1184,0.1288,0.147,0.1576,0.173,0.1812,0.1843,0.1782,0.1651,0.1167,0.0755,0.029,-0.0028,-0.0082,-0.0082,-0.0029,0.0097,0.0105,-0.0219,-0.0173,0,0,0,0,0]}],[{"header":{"parameterUnit":"m.s-1","parameterCategory":2,"la1":30.2991,"la2":30.254,"lo1":-89.0895,"lo2":-89.0444,"dy":0.0017,"dx":0.0017,"nx":28,"ny":28,"refTime":"2024-03-26T03:00:00:Z","depth":"4","parameterNumber":2,"parameterNumberName":"U-component_of_CURRENTS"},"data":[0,0,0,0,0,0,0,0,0,0,0,0,0,0,0,0,0,0,0,0,0,0,0,0,0,0,0,0,0,0,0,0,0,0,0,0,0,0,0,0,0,0,0,0,0,0,0,0,0,0,0,0,0,0,0,0,0,0,0.1433,0.1434,0,0.1535,0.1536,0.1538,0.1472,0.1469,0.1466,0.1462,0.1537,0.1542,0.1547,0,0,0,0,0,0,0,0,0,0,0,0,0,0.1306,0.1308,0.1433,0.1434,0.1435,0.1534,0.1536,0.1538,0.1473,0.1469,0.1465,0.1461,0.1535,0.1541,0.1548,0,0,0,0,0,0,0,0,0,0,0,0,0,0.1383,0.1309,0.1433,0.1411,0.141,0.1534,0.1536,0.1539,0.1474,0.1469,0.1464,0.1459,0.1533,0.1541,0.1548,0.1699,0,0,0.1572,0.1576,0,0,0,0,0,0,0,0,0.1379,0.1388,0.1414,0.1413,0.1412,0.1482,0.1518,0.1589,0.1475,0.1454,0.1462,0.1456,0.1517,0.1526,0.1563,0.1702,0.1705,0.1573,0.1578,0.1581,0.1583,0,0,0,0,0,0,0,0.1373,0.1384,0.1477,0.1415,0.1414,0.1438,0.1443,0.1533,0.1516,0.1456,0.145,0.1457,0.1516,0.1556,0.1564,0.1707,0.1573,0.158,0.1584,0.1587,0.1861,0.1863,0,0,0,0,0,0,0.1352,0.1379,0.1474,0.148,0.1378,0.1444,0.145,0.1468,0.1515,0.1517,0.1461,0.1453,0.1545,0.1555,0.1566,0.1702,0.1581,0.1588,0.1593,0.1858,0.1861,0.1864,0,0,0,0,0,0,0.135,0.1361,0.147,0.1427,0.1442,0.145,0.1473,0.1473,0.1535,0.1519,0.1519,0.1523,0.1541,0.1555,0.1606,0.1705,0.1592,0.1599,0.1855,0.1859,0.1863,0.2001,0,0,0,0,0,0,0.1346,0.136,0.1408,0.1427,0.1444,0.1534,0.1477,0.1478,0.1542,0.1534,0.1574,0.1573,0.1538,0.1594,0.1614,0.1713,0.1605,0.1852,0.1857,0.1861,0.1993,0.2009,0.2023,0,0,0,0,0,0.1341,0.1392,0.141,0.1423,0.1496,0.1535,0.1548,0.1538,0.1551,0.158,0.1576,0.1573,0.1639,0.1603,0.1625,0.1729,0.1849,0.1855,0.1861,0.1987,0.2006,0.2023,0,0,0,0,0,0,0.1297,0.1392,0.1409,0.147,0.1504,0.1521,0.1561,0.1589,0.1627,0.1628,0.1614,0.1614,0.1694,0.1697,0.1658,0.1816,0.1746,0.1757,0.1834,0.1853,0.1868,0.182,0.1611,0,0,0,0,0,0.1333,0.1446,0.1469,0.1529,0.1542,0.1583,0.1619,0.1624,0.1643,0.1658,0.1678,0.1704,0.1747,0.1778,0.1803,0.1921,0.189,0.1996,0.2011,0.2024,0.1998,0.2038,0.2054,0.1883,0.1883,0.1883,0,0,0.1349,0.1405,0.1474,0.154,0.1567,0.1579,0.1591,0.1651,0.1699,0.1668,0.1746,0.1768,0.1784,0.1864,0.1907,0.1878,0.206,0.2032,0.2043,0.2008,0.2046,0.2062,0.2077,0.1887,0.1887,0.1886,0,0,0.1389,0.1463,0.155,0.1581,0.1639,0.1639,0.1669,0.1717,0.1775,0.1855,0.1841,0.1894,0.198,0.199,0.2012,0.2142,0.2131,0.2192,0.2249,0.2292,0.2305,0.2317,0.231,0.232,0.2208,0.2208,0.2208,0,0.1423,0.1473,0.1571,0.1608,0.1624,0.1661,0.168,0.176,0.1828,0.1907,0.1872,0.2001,0.2024,0.2128,0.2148,0.218,0.2181,0.2186,0.2311,0.2321,0.2331,0.2321,0.233,0.2216,0.2215,0.2214,0.2213,0,0.1461,0.1517,0.1547,0.1614,0.1657,0.168,0.1751,0.1815,0.1881,0.1976,0.2117,0.2131,0.2201,0.2245,0.2234,0.2355,0.2326,0.2321,0.2264,0.2356,0.234,0.2347,0.2226,0.2224,0.2221,0.2219,0,0,0.1442,0.1576,0.157,0.1609,0.1658,0.1689,0.1767,0.1865,0.1961,0.2065,0.2176,0.2282,0.235,0.2374,0.241,0.2434,0.2518,0.2418,0.2416,0.2405,0.2589,0.2454,0.2448,0.2554,0.2556,0.2558,0.2554,0,0.1416,0.1526,0.1568,0.1604,0.1635,0.1683,0.1758,0.1889,0.2004,0.2124,0.2247,0.2377,0.2402,0.2455,0.2499,0.2513,0.2541,0.2516,0.2502,0.25,0.2366,0.2453,0.2563,0.2559,0.256,0.2561,0.2562,0,0.138,0.1449,0.1539,0.1635,0.1648,0.1683,0.1788,0.1891,0.2093,0.2204,0.2356,0.2455,0.2575,0.254,0.2632,0.2628,0.262,0.2596,0.2597,0.2413,0.2377,0.2443,0.2573,0.2572,0.2572,0.2571,0.257,0,0.1301,0.1404,0.1494,0.1521,0.1631,0.1687,0.1758,0.1947,0.2068,0.2299,0.2367,0.255,0.2629,0.2661,0.2691,0.268,0.2711,0.2695,0.2552,0.2541,0.2599,0.2586,0.2716,0.2716,0.2716,0.2716,0.2716,0,0.1231,0.1275,0.1491,0.1502,0.1598,0.172,0.1855,0.1951,0.2123,0.2266,0.246,0.2518,0.2664,0.2716,0.2708,0.2664,0.2762,0.255,0.2538,0.2659,0.2653,0.2604,0.2591,0.2716,0.2716,0.2716,0.2716,0,0.1143,0.1275,0.1353,0.1502,0.1572,0.1669,0.1872,0.1964,0.2155,0.2297,0.237,0.2538,0.2627,0.2709,0.2744,0.2681,0.2641,0.2592,0.2703,0.2698,0.2425,0.242,0.2416,0.2412,0.2408,0.2405,0.2402,0,0.1142,0.1192,0.1359,0.1423,0.1497,0.1679,0.1778,0.1972,0.2062,0.2276,0.229,0.245,0.2555,0.2501,0.2592,0.2587,0.2555,0.2518,0.2468,0.2409,0.2399,0.2399,0.2399,0.2396,0.2395,0.2393,0.2392,0,0.1069,0.1146,0.1189,0.1358,0.1469,0.1579,0.1741,0.178,0.1991,0.2153,0.2204,0.2263,0.2339,0.2396,0.2436,0.2413,0.2537,0.2476,0.2483,0.2436,0.2384,0.2377,0.2382,0.2379,0.2381,0.2382,0.2383,0,0.102,0.1029,0.1134,0.1265,0.1387,0.1442,0.1548,0.165,0.1752,0.1981,0.1984,0.2149,0.2307,0.2301,0.2315,0.2324,0.2275,0.2191,0.2212,0.2228,0.2172,0.208,0.1966,0,0,0,0,0,0.0988,0.0982,0.1062,0.1153,0.1266,0.1349,0.149,0.159,0.1786,0.1775,0.1885,0.1957,0.2024,0.2088,0.2058,0.22,0.2265,0.2152,0.2173,0.2303,0.2319,0.2274,0,0,0,0,0,0,0.0952,0.0996,0.1008,0.1059,0.1109,0.1207,0.1279,0.14,0.1417,0.1626,0.1673,0.1838,0.1925,0.2032,0.2022,0.2045,0.2017,0.2261,0.2256,0.2294,0.2309,0.2321,0.2281,0,0,0,0,0]},{"header":{"parameterUnit":"m.s-1","parameterCategory":2,"la1":30.2991,"la2":30.254,"lo1":-89.0895,"lo2":-89.0444,"dy":0.0017,"dx":0.0017,"nx":28,"ny":28,"refTime":"2024-03-26T03:00:00:Z","depth":"4","parameterNumber":3,"parameterNumberName":"V-component_of_CURRENTS"},"data":[0,0,0,0,0,0,0,0,0,0,0,0,0,0,0,0,0,0,0,0,0,0,0,0,0,0,0,0,0,0,0,0,0,0,0,0,0,0,0,0,0,0,0,0,0,0,0,0,0,0,0,0,0,0,0,0,0,0,0.0205,0.0204,0,0.0181,0.0181,0.0181,0.0212,0.0213,0.0215,0.0216,0.0173,0.017,0.0168,0,0,0,0,0,0,0,0,0,0,0,0,0,0.0225,0.0224,0.0205,0.0204,0.0204,0.0181,0.0181,0.0181,0.0212,0.0213,0.0215,0.0216,0.0173,0.0171,0.0168,0,0,0,0,0,0,0,0,0,0,0,0,0,0.0209,0.0224,0.0205,0.0218,0.0219,0.0182,0.0181,0.0181,0.0212,0.0213,0.0215,0.0217,0.0174,0.0171,0.0168,0.011,0,0,0.0157,0.0156,0,0,0,0,0,0,0,0,0.021,0.0208,0.0216,0.0217,0.0218,0.0202,0.0172,0.0156,0.0211,0.0213,0.0216,0.0218,0.018,0.0176,0.0167,0.0108,0.0106,0.0157,0.0155,0.0153,0.0152,0,0,0,0,0,0,0,0.0211,0.0209,0.0195,0.0216,0.0217,0.0207,0.0208,0.0169,0.0186,0.0213,0.0216,0.0214,0.0181,0.017,0.0166,0.0105,0.0157,0.0154,0.0152,0.015,0.0055,0.0055,0,0,0,0,0,0,0.0217,0.021,0.0195,0.0194,0.022,0.0206,0.0206,0.0205,0.0186,0.0186,0.0213,0.0216,0.0175,0.017,0.0164,0.0148,0.0153,0.015,0.0148,0.0056,0.0055,0.0054,0,0,0,0,0,0,0.0217,0.0215,0.0196,0.0202,0.02,0.0204,0.0202,0.0203,0.0205,0.0186,0.0186,0.0215,0.0176,0.0169,0.0151,0.0145,0.0149,0.0145,0.0056,0.0055,0.0055,0.008,0,0,0,0,0,0,0.0218,0.0216,0.0218,0.0203,0.02,0.0184,0.02,0.0202,0.0201,0.0205,0.0187,0.0185,0.0177,0.0156,0.0148,0.014,0.0143,0.0057,0.0056,0.0055,0.008,0.0081,0.0081,0,0,0,0,0,0.0218,0.0215,0.0218,0.0216,0.0202,0.0184,0.0181,0.0189,0.0199,0.0198,0.0194,0.0186,0.0145,0.0153,0.0143,0.0134,0.0057,0.0056,0.0055,0.008,0.008,0.0081,0,0,0,0,0,0,0.0229,0.0217,0.0221,0.0215,0.0205,0.019,0.0192,0.0188,0.0181,0.0193,0.0176,0.0172,0.0156,0.0135,0.0145,0.0104,0.0099,0.0096,0.0122,0.0122,0.0122,0.0151,0.014,0,0,0,0,0,0.0229,0.0225,0.0211,0.021,0.0207,0.0197,0.0192,0.0195,0.0186,0.0186,0.0169,0.0154,0.0137,0.0125,0.0106,0.0073,0.0047,0.0061,0.0062,0.0062,0.0078,0.0026,0.0024,0.0051,0.0051,0.0051,0,0,0.0233,0.0227,0.0226,0.0212,0.0209,0.0207,0.0199,0.0197,0.0205,0.0178,0.0181,0.0153,0.013,0.011,0.0099,0.0095,0.0038,0.0061,0.0062,0.0078,0.0025,0.0022,0.002,0.005,0.005,0.0051,0,0,0.0247,0.0236,0.0244,0.0235,0.0231,0.0217,0.0217,0.02,0.0208,0.0191,0.0185,0.0156,0.0119,0.0106,0.0094,0.0077,0.0045,0.0065,0.0086,0.0035,0.0032,0.003,-0.0016,-0.0023,0.0062,0.0062,0.0062,0,0.0256,0.0266,0.0242,0.0251,0.0255,0.0225,0.024,0.023,0.021,0.0213,0.0202,0.0143,0.012,0.0099,0.0105,0.0079,0.0048,0.0088,0.0036,0.0033,0.0031,-0.0016,-0.0024,0.0063,0.0063,0.0063,0.0063,0,0.0285,0.0291,0.0294,0.0297,0.029,0.0295,0.028,0.0274,0.0262,0.0245,0.0219,0.0172,0.0143,0.0118,0.0111,0.0078,0.0062,0.0045,0.0039,0.003,-0.0019,-0.0028,0.0065,0.0065,0.0064,0.0064,0,0,0.0301,0.0316,0.0318,0.0339,0.0321,0.0322,0.0328,0.0323,0.0336,0.0282,0.0278,0.0229,0.0192,0.0176,0.0139,0.0091,0.0039,0.0068,0.0065,0.003,-0.0072,-0.0071,-0.0081,0.0012,0.0011,0.001,-0.0102,0,0.0336,0.0381,0.0368,0.0398,0.0417,0.0395,0.0406,0.0394,0.0371,0.0348,0.0282,0.0262,0.0217,0.0203,0.0144,0.0072,0.002,0.0071,-0.0063,-0.0067,-0.006,-0.0089,0.0006,-0.0108,-0.011,-0.0111,-0.0112,0,0.0375,0.0395,0.0452,0.0472,0.048,0.0494,0.0509,0.0514,0.0472,0.0458,0.0399,0.0336,0.0264,0.0224,0.0081,0.0116,0.0035,-0.0035,-0.0041,-0.0049,-0.0081,-0.0097,-0.0128,-0.0127,-0.0126,-0.0125,-0.0124,0,0.0416,0.0452,0.0509,0.0516,0.0529,0.0561,0.0571,0.0556,0.0572,0.053,0.0516,0.0403,0.0356,0.0228,0.0077,0.0084,-0.0094,-0.0107,-0.019,-0.0192,-0.0169,-0.0165,-0.0208,-0.0208,-0.0207,-0.0207,-0.0207,0,0.0455,0.049,0.0547,0.0565,0.0639,0.063,0.0689,0.0687,0.067,0.0678,0.0583,0.0543,0.0357,0.0221,0.0085,-0.0082,-0.0093,-0.0186,-0.0221,-0.0158,-0.0151,-0.0176,-0.017,-0.0211,-0.021,-0.021,-0.0209,0,0.0488,0.052,0.0586,0.0635,0.0663,0.0724,0.0778,0.0805,0.0796,0.0796,0.0785,0.0644,0.0482,0.0276,0.0058,-0.0055,-0.0223,-0.0279,-0.0199,-0.0228,-0.0288,-0.0281,-0.0374,-0.0375,-0.0376,-0.0377,-0.0377,0,0.0515,0.0558,0.0652,0.0704,0.0737,0.0821,0.0871,0.0883,0.0899,0.0851,0.0839,0.0688,0.0575,0.0264,0.0053,-0.022,-0.0253,-0.034,-0.0309,-0.0281,-0.0306,-0.0297,-0.0288,-0.0378,-0.0379,-0.0379,-0.0379,0,0.0553,0.0602,0.0648,0.0766,0.0845,0.0917,0.0979,0.1001,0.0997,0.0986,0.0891,0.0719,0.0526,0.0272,0.0055,-0.0141,-0.0285,-0.0348,-0.0347,-0.0319,-0.0287,-0.0309,-0.03,-0.0382,-0.0381,-0.0381,-0.0381,0,0.0589,0.064,0.0718,0.0815,0.091,0.0972,0.1011,0.102,0.1032,0.0976,0.0938,0.0735,0.0608,0.0311,0.0106,-0.0085,-0.0123,-0.0173,-0.0182,-0.0182,-0.0094,-0.0023,-0.0067,0,0,0,0,0,0.0621,0.0665,0.0755,0.085,0.094,0.0993,0.1052,0.1072,0.1074,0.1025,0.0984,0.0806,0.0505,0.036,0.0173,0.0084,-0.0166,-0.0142,-0.023,-0.0397,-0.0393,-0.0323,0,0,0,0,0,0,0.0641,0.0718,0.075,0.0853,0.092,0.1012,0.1054,0.106,0.1023,0.1002,0.0842,0.0769,0.0469,0.0618,0.0173,0.0112,0.0033,-0.0284,-0.0288,-0.0398,-0.0395,-0.0393,-0.032,0,0,0,0,0]}]]